Tracking 29892 objects as of 21-Nov-2024
HD Live streaming from Space Station
objects crossing your sky now

PEGASUS R/B

Track PEGASUS R/B now!
10-day predictions


NORAD ID: 27784
Int'l Code: 2003-017B
Perigee: 683.8 km
Apogee: 691.1 km
Inclination: 29.0 °
Period: 98.4 minutes
Semi major axis: 7058 km
RCS: 1.3949 m2 (large)
Launch date: April 28, 2003
Source: United States (US)
Launch site: AIR FORCE EASTERN TEST RANGE (AFETR)

Note: This is a ROCKET BODY
Your satellite tracking list
Your tracking list is empty




NASA's NSSDC Master Catalog

Two Line Element Set (TLE):
1 27784U 03017B   24325.69420003  .00001332  00000-0  22928-3 0  9994
2 27784  29.0044  54.0294 0005196 135.5556 224.5449 14.63991599153032
Source of the keplerian elements: AFSPC